Regional Weather Roundup
Issued by NWS Grand Forks, ND

Home | Current Version | Previous Version | Text Only | Print | Product List | Glossary On
Versions: 1 2 3 4 5 6 7 8 9 10 11 12 13 14 15 16 17 18 19 20 21 22 23 24 25 26 27 28 29 30 31 32 33 34 35 36 37 38 39 40 41 42 43 44 45 46 47 48 49 50
000
ASUS43 KFGF 301131
RWRFGF
PRAIRIE TO PINES  WEATHER ROUNDUP
NATIONAL WEATHER SERVICE EASTERN NORTH DAKOTA/GRAND FORKS ND
600 AM CDT FRI SEP 30 2016

 **SATELLITE DATA USED TO AUGMENT SKY COVER AT AUTOMATED STATIONS**
 *****  WEATHER ACROSS EASTERN NORTH DAKOTA  *****

CITY           SKY/WX    TMP DP  RH WIND       PRES   REMARKS
GRAND FORKS    PTCLDY    44  42  93 S5        30.33S
GRAND FRKS AFB CLEAR     42  40  95 S3        30.32F
GRAND FRKS NWS   N/A     45 N/A N/A SE7         N/A
DEVILS LAKE    CLOUDY    50  47  89 SE13      30.27F
FARGO          CLEAR     51  47  86 SE10      30.33S
WAHPETON ARPT  SUNNY     45  43  93 SE7       30.34F
$$

 ***** WEATHER ACROSS CENTRAL AND WESTERN NORTH DAKOTA  *****

CITY           SKY/WX    TMP DP  RH WIND       PRES   REMARKS
BISMARCK       CLOUDY    53  46  77 SE14      30.19R
MINOT          MOCLDY    52  47  83 E13       30.13F
JAMESTOWN      PTCLDY    46  44  93 SE9       30.28S
MINOT AFB      CLOUDY    50  47  87 SE9       30.12F
GARRISON         N/A     53  47  79 SE13G23   30.12F
WILLISTON      LGT RAIN  58  46  64 SE10      30.04S
DICKINSON      CLOUDY    55  42  61 SE22      30.05F
HETTINGER      CLOUDY    56  42  59 SE6       30.12S
$$

 *****  OTHER AIRPORT OBSERVATIONS IN OUR AREA  *****

CITY           SKY/WX    TMP DP  RH WIND       PRES   REMARKS
WALHALLA       FAIR      43  41  93 SE8       30.31F
GRAFTON AIRPOR FAIR      43  43 100 CALM      30.35S
VALLEY CITY AR FAIR      46  46 100 SE8       30.32F
CANDO          FAIR      48  48 100 SE12G17   30.27F
CAVALIER APRT  FAIR      45  43  93 SE3       30.32F
GWINNER        FAIR      45  45 100 SE7       30.32S
SHEYENNE NWR     N/A     46  44  93 SE7       29.95S
ROLLA          FAIR      45  45 100 SE7       30.25S
 ***** THE ABOVE OBSERVATIONS ARE NON NWS ARE NOT QUALITY
       CONTROLLED AND MAY MIS-REPORT RAIN FOR SNOW...
$$

  *****  WEATHER ACROSS NORTHERN MINNESOTA  *****

CITY           SKY/WX    TMP DP  RH WIND       PRES   REMARKS
FLAG ISLAND    CLOUDY    55  48  76 SE10      30.38F
WARROAD        CLOUDY    50  46  87 SE5       30.40S
ROSEAU         CLEAR     45  39  81 SE3       30.38F
HALLOCK        CLEAR     48  45  87 SE8       30.34S
THF RVR FALLS  CLEAR     45  43  93 SE9       30.37F
BAUDETTE       CLOUDY    51  47  86 SE6       30.41S
WASKISH        CLEAR     45  43  93 E6        30.41S
CROOKSTON      CLEAR     46  46 100 SE9       30.35F
STEPHEN NDAWN    N/A     46  45  93 SE5         N/A
GREENBUSH NDAW   N/A     45  45 100 SE6         N/A
$$
  *****  WEATHER ACROSS CENTRAL AND WEST MINNESOTA  *****

CITY           SKY/WX    TMP DP  RH WIND       PRES   REMARKS
FOSSTON        CLEAR     45  43  93 SE5       30.37F
BEMIDJI        FOG       46  46 100 SE7       30.40R VSB 3/4
PARK RAPIDS    FOG       47  45  93 CALM      30.39S VSB 1/4
ELBOW LAKE     FAIR      47  47 100 SE9       30.35F
WADENA         FOG       43  43 100 CALM      30.39R VSB 3/4
DETROIT LAKES  PTCLDY    46  46 100 SE8       30.37F
MOORHEAD       CLEAR     48  46  93 SE6       30.34S
FERGUS FALLS   CLEAR     50  50 100 E6        30.37S
MORRIS MN      CLEAR     43  43 100 E7        30.34F FOG
STAPLES        FOG       46  46 100 CALM      30.39S VSB 1/4
$$
  *****  WEATHER ELSEWHERE ACROSS MINNESOTA  *****

CITY           SKY/WX    TMP DP  RH WIND       PRES   REMARKS
DULUTH         CLOUDY    51  50  96 E9        30.44R
INTRNTL FALLS  FOG       45  44  97 SE6       30.43S VSB 3/4
ELY            CLOUDY    48  46  93 CALM      30.45S
CLOQUET        CLOUDY    52  48  87 E5        30.44R
WHEATON        CLEAR     41  39  93 SE6       30.36F FOG
BRAINERD       CLOUDY    51  50  96 VRB5      30.41S
HIBBING        CLOUDY    48  48 100 SE5       30.44R FOG
ALEXANDRIA     FOG       47  47 100 SE8       30.38S VSB 1/4
SAINT CLOUD    FOG       49  49 100 E5        30.39S VSB 1/2
MINNEAPOLIS    CLEAR     50  48  93 N6        30.38R
$$

  *****  WEATHER ACROSS SOUTH DAKOTA  *****

CITY           SKY/WX    TMP DP  RH WIND       PRES   REMARKS
SIOUX FALLS    CLEAR     44  42  93 NE3       30.33S
BROOKINGS      CLEAR     43  42  97 CALM      30.32F
WATERTOWN      CLEAR     48  44  86 S5        30.32S
HURON          CLEAR     47  45  93 SE6       30.30R
SISSETON         N/A     43  42  97 S6        30.33S
ABERDEEN       CLOUDY    46  43  89 S7        30.29S
MITCHELL       CLEAR     46  43  89 S6        30.31S
PIERRE         CLOUDY    52  44  74 SE16      30.20S
MOBRIDGE       PTCLDY    57  46  66 SE18      30.16F
RAPID CITY     CLOUDY    57  43  59 E10       30.11F
$$

  *****  SOME WEATHER IN NEARBY STATES *****

CITY           SKY/WX    TMP DP  RH WIND       PRES   REMARKS
GLASGOW MT     CLEAR     53  45  74 E8        29.95R
GREAT FALLS MT CLEAR     47  44  90 CALM      30.02S
CHEYENNE WY    CLOUDY    58  45  62 E3        30.25S
SCOTTSBLUFF NE CLEAR     47  40  76 E8        30.20S
OMAHA NE       CLEAR     47  43  86 N7        30.29F
DES MOINES IA  CLEAR     55  49  80 N9        30.28R
DAVENPORT IA   CLOUDY    55  52  89 N12       30.22S
CHICAGO IL     DRIZZLE   61  58  90 NE10      30.15S FOG
EAU CLAIRE WI  CLEAR     48  48 100 NE5       30.36F
LA CROSSE WI   MOCLDY    55  52  89 NW6       30.33R
$$

  *****  SOME NATIONAL WEATHER *****

CITY           SKY/WX    TMP DP  RH WIND       PRES   REMARKS
LA GUARDIA NY  CLOUDY    61  53  75 NE31G40   30.29S
RALEIGH NC     CLOUDY    73  71  93 SE6       30.01R
ATLANTA GA     PTCLDY    53  48  83 W10       30.03R
NEW ORLEANS LA CLEAR     71  56  58 NE8       30.08R
OKLAHOMA CITY  PTCLDY    52  49  89 NW6       30.25S
ALBUQUERQUE NM CLOUDY    60  54  80 VRB5      30.34S
SALT LAKE CITY MOCLDY    64  51  62 SE12      30.17S
LOS ANGELES CA CLEAR     68  63  84 CALM      30.01F
BOISE ID       PTCLDY    65  41  41 S10       30.01R
SEATTLE WA     PTCLDY    49  44  83 SE7       30.06F
$$

*** WEATHER ACROSS MANITOBA...SASKATCHEWAN AND ONTARIO ***
                ***ONTARIO***

CITY           SKY/WX    TMP DP  RH WIND       PRES   REMARKS
GERALDTON      FOG       39  39 100 CALM      30.51R VSB 1/2
THUNDER BAY    MOCLDY    39  39 100 W3        30.48S
SIOUX LOOKOUT  PTCLDY    45  45 100 E5        30.46F
TORONTO        CLOUDY    61  55  82 E10       30.31S
BIG TROUT LK   CLOUDY    52  48  87 W5        30.42S
PICKLE LAKE    MOCLDY    48  45  87 S5        30.48
DRYDEN         MOCLDY    48  46  93 E5        30.44S
KENORA         MOCLDY    50  45  81 SE6       30.42S
$$
                *** MANITOBA***

CITY           SKY/WX    TMP DP  RH WIND       PRES   REMARKS
BRANDON        PTCLDY    46  45  93 SE8       30.22F
DAUPHIN        CLEAR     46  45  93 SE9       30.20F
ISLAND LAKE    PTCLDY    50  46  87 SE5       30.35F
PILOT MOUND      N/A     46  43  87 SE12        N/A
THE PAS        MOCLDY    50  48  93 SE7       30.14F
THOMPSON       MOCLDY    50  48  93 E3        30.23F
WINNIPEG       CLEAR     46  43  87 SE10      30.33F
LYNN LAKE      MOCLDY    34  34 100 NE3       30.23S
CHURCHILL      CLEAR     41  37  87 NW9       30.28R
$$
                ***SASKATCHEWAN***

CITY           SKY/WX    TMP DP  RH WIND       PRES   REMARKS
ESTEVAN        PTCLDY    48  45  87 E9        30.06F
KINDERSLEY     CLEAR     45  43  93 NE6       30.00F
LLOYDMINSTER   MOCLDY    45  41  87 NE5       30.06S
PRINCE ALBERT  CLOUDY    48  48 100 E9        30.05F FOG
REGINA         PTCLDY    48  45  87 SE13      30.03F
YORKTON        MOCLDY    50  45  81 SE13G18   30.11S
N. BATTLEFORD  CLOUDY    48  48 100 N7        30.04F
LA RONGE       CLOUDY    52  48  87 NE9G17    30.15F
SASKATOON      PTCLDY    45  45 100 NE7       30.01S
SWIFT CURRENT  CLEAR     50  46  87 S8        29.96F
$$
NOTE: THESE ARE AUTOMATED STATIONS WITH LIMITED QUALITY CONTROL
      "FAIR" INDICATES FEW OR NO CLOUDS BELOW 12,000 FEET WITH NO
      SIGNIFICANT WEATHER AND/OR OBSTRUCTIONS TO VISIBILITY.
      SKY/WX - SKY CONDITION AND SIGNIFICANT WEATHER.
      TMP - AIR TEMPERATURE.    DP   - DEWPOINT TEMPERATURE.
      RH  - RELATIVE HUMIDITY.  PRES - PRESSURE.
      HX  - HEAT INDEX.         WCI  - WIND CHILL INDEX.
$




USA.gov is the U.S. government's official web portal to all federal, state and local government web resources and services.